SCP
0 0 0 0 0 0 0 0 0 0 0 0 0 0 0 0 0 0 0 0 0 0 0 0 0 0 0 0 0 0 0 0 0 0 0 0 0 0 0 0 0 0 0
0 0 0 0 0 0 0 0 0 0 0 0 0 0 0 0 0 0 0 0 0 0 0 0 0 0 0 0 0 0 0 0 0 0 0 0 0 0 0 0 0 0 0
0 0 0 0 0 0 0 0 0 0 0 0 0 0 0 0 0 0 0 0 0 0 0 0 0 0 0 0 0 0 0 0 0 0 0 0 0 0 0 0 0 0 0
0 0 0 0 0 0 0 0 0 0 0 0 0 0 0 0 0 0 0 0 0 0 0 0 0 0 0 0 0 0 0 0 0 0 0 0 0 0 0 0 0 0 0
0 0 0 0 0 0 0 0 0 0 0 0 0 0 0 0 0 0 0 0 0 0 0 0 0 0 0 0 0 0 0 0 0 0 0 0 0 0 0 0 0 0 0
0 0 0 0 0 0 0 0 0 0 0 0 0 0 0 0 0 0 0 0 0 0 0 0 0 0 0 0 0 0 0 0 0 0 0 0 0 0 0 0 0 0 0
0 0 0 0 0 0 0 0 0 0 0 0 0 0 0 0 0 0 0 0 0 0 0 0 0 0 0 0 0 0 0 0 0 0 0 0 0 0 0 0 0 0 0
0 0 0 0 0 0 0 0 0 0 0 0 0 0 0 0 0 0 0 0 0 0 0 0 0 0 0 0 0 0 0 0 0 0 0 0 0 0 0 0 0 0 0
0 0 0 0 0 0 0 0 0 0 0 0 0 0 0 0 0 0 0 0 0 0 0 0 0 0 0 0 0 0 0 0 0 0 0 0 0 0 0 0 0 0 0
0 0 0 0 0 0 0 0 0 0 0 0 0 0 0 0 0 0 0 0 0 0 0 0 0 0 0 0 0 0 0 0 0 0 0 0 0 0 0 0 0 0 0
0 0 0 0 0 0 0 0 0 0 0 0 0 0 0 0 0 0 0 0 0 0 0 0 0 0 0 0 0 0 0 0 0 0 0 0 0 0 0 0 0 0 0
0 0 0 0 0 0 0 0 0 0 0 0 0 0 0 0 0 0 0 0 0 0 0 0 0 0 0 0 0 0 0 0 0 0 0 0 0 0 0 0 0 0 0
0 0 0 0 0 0 0 0 0 0 0 0 0 0 0 0 0 0 0 0 0 0 0 0 0 0 0 0 0 0 0 0 0 0 0 0 0 0 0 0 0 0 0
0 0 0 0 0 0 0 0 0 0 0 0 0 0 0 0 0 0 0 0 0 0 0 0 0 0 0 0 0 0 0 0 0 0 0 0 0 0 0 0 0 0 0
0 0 0 0 0 0 0 0 0 0 0 0 0 0 0 0 0 0 0 0 0 0 0 0 0 0 0 0 0 0 0 0 0 0 0 0 0 0 0 0 0 0 0
0 0 0 0 0 0 0 0 0 0 0 0 0 0 0 0 0 0 0 0 0 0 0 0 0 0 0 0 0 0 0 0 0 0 0 0 0 0 0 0 0 0 0
0 0 0 0 0 0 0 0 0 0 0 0 0 0 0 0 0 0 0 0 0 0 0 0 0 0 0 0 0 0 0 0 0 0 0 0 0 0 0 0 0 0 0
0 0 0 0 0 0 0 0 0 0 0 0 0 0 0 0 0 0 0 0 0 0 0 0 0 0 0 0 0 0 0 0 0 0 0 0 0 0 0 0 0 0 0
0 0 0 0 0 0 0 0 0 0 0 0 0 0 0 0 0 0 0 0 0 0 0 0 0 0 0 0 0 0 0 0 0 0 0 0 0 0 0 0 0 0 0
0 0 0 0 0 0 0 0 0 0 0 0 0 0 0 0 0 0 0 0 0 0 0 0 0 0 0 0 0 0 0 0 0 0 0 0 0 0 0 0 0 0 0
0 0 0 0 0 0 0 0 0 0 0 0 0 0 0 0 0 0 0 0 0 0 0 0 0 0 0 0 0 0 0 0 0 0 0 0 0 0 0 0 0 0 0
0 0 0 0 0 0 0 0 0 0 0 0 0 0 0 0 0 0 0 0 0 0 0 0 0 0 0 0 0 0 0 0 0 0 0 0 0 0 0 0 0 0 0
0 0 0 0 0 0 0 0 0 0 0 0 0 0 0 0 0 0 0 0 0 0 0 0 0 0 0 0 0 0 0 0 0 0 0 0 0 0 0 0 0 0 0
0 0 0 0 0 0 0 0 0 0 0 0 0 0 0 0 0 0 0 0 0 0 0 0 0 0 0 0 0 0 0 0 0 0 0 0 0 0 0 0 0 0 0
0 0 0 0 0 0 0 0 0 0 0 0 0 0 0 0 0 0 0 0 0 0 0 0 0 0 0 0 0 0 0 0 0 0 0 0 0 0 0 0 0 0 0
0 0 0 0 0 0 0 0 0 0 0 0 0 0 0 0 0 0 0 0 0 0 0 0 0 0 0 0 0 0 0 0 0 0 0 0 0 0 0 0 0 0 0
Wind_Speed_500mb
99 94 93 90 87 84 80 71 64 55 53 58 57 59 60 60 57 63 64 62 60 61 59 57 56 51 50 48 45 47 49 42 44 47 40 43 40 41 40 39 36 34 32
94 93 90 90 88 83 76 72 65 61 63 64 62 61 61 63 60 60 59 58 58 53 51 53 51 49 49 50 42 42 37 44 43 42 40 39 38 38 38 38 38 36 38
94 89 85 87 86 82 77 72 69 64 66 67 65 63 62 59 57 56 54 50 52 52 50 50 50 47 40 37 34 38 38 35 35 34 34 33 34 35 36 37 38 42 43
94 87 85 84 84 79 75 71 67 67 68 69 67 68 65 65 58 53 51 56 58 56 51 39 34 33 38 37 36 31 31 29 31 34 35 32 27 29 32 36 44 48 50
91 89 86 81 77 74 71 68 68 68 67 67 66 61 55 53 49 47 46 40 32 31 28 30 33 34 31 34 35 32 31 33 34 29 25 22 23 29 37 45 51 53 51
81 79 75 74 73 71 71 71 70 68 62 55 50 49 47 43 44 42 32 30 32 31 33 31 30 33 35 33 30 30 36 30 24 20 20 23 30 38 49 53 54 52 46
72 72 72 72 72 73 70 65 61 56 51 49 47 43 39 36 31 28 31 28 28 30 28 27 28 28 29 33 37 35 30 27 25 22 23 30 39 44 47 46 45 43 46
69 67 67 69 66 64 60 56 55 52 48 44 39 36 31 26 26 27 28 28 26 25 24 28 30 33 36 35 33 32 31 27 25 26 28 33 38 39 38 39 41 46 50
64 65 66 64 64 60 58 56 53 47 42 37 33 28 26 28 25 23 24 26 26 26 29 30 31 33 34 33 31 33 33 30 30 30 33 34 35 36 36 39 43 47 51
67 65 63 63 61 59 55 51 45 39 35 33 32 32 31 28 25 25 25 27 28 28 28 29 29 32 32 30 32 35 35 34 36 36 39 39 38 38 39 40 45 49 50
65 63 64 62 59 51 48 45 39 39 39 36 34 33 30 29 30 29 29 28 26 26 27 27 28 32 32 33 35 38 38 41 41 42 42 41 42 42 43 42 46 50 53
65 66 65 63 57 55 52 45 44 42 38 36 36 34 32 32 31 29 29 30 30 28 26 28 31 33 33 37 38 39 41 46 47 49 48 46 44 43 43 46 52 55 57
72 71 68 61 58 55 51 49 47 42 38 37 37 34 33 31 29 30 30 31 29 26 32 34 35 35 37 39 42 46 51 54 57 57 53 51 48 48 48 52 54 58 60
78 72 68 64 60 56 51 45 41 38 41 42 39 37 34 32 31 31 29 29 30 29 33 34 37 39 40 42 46 50 56 59 60 58 57 54 53 52 53 55 59 60 66
78 74 70 63 59 55 48 41 40 37 35 33 31 32 31 32 32 32 30 29 29 32 37 35 34 37 40 40 44 49 52 54 56 56 58 60 61 61 60 59 62 64 69
79 71 66 62 59 52 50 53 52 49 46 40 35 33 32 30 30 27 28 29 30 34 34 33 35 39 42 42 46 47 50 53 55 58 62 65 66 65 65 62 61 63 68
68 66 63 59 56 57 55 53 53 49 41 35 34 32 30 29 27 28 29 27 28 34 36 34 36 38 42 45 47 48 50 50 52 54 56 56 58 58 58 58 58 59 62
57 55 56 53 52 52 52 48 41 36 36 34 32 28 27 23 21 22 23 26 30 33 38 39 39 41 46 49 50 50 51 50 51 52 54 54 53 53 54 55 55 57 59
57 55 53 55 55 52 48 44 39 37 33 29 26 22 18 18 21 21 25 29 33 35 36 39 41 43 47 51 53 55 55 56 55 55 53 52 52 53 56 55 56 56 57
55 57 58 57 54 49 43 39 36 31 26 22 18 17 19 22 23 24 28 33 35 38 42 45 49 51 51 53 54 55 57 58 56 56 57 55 52 52 56 56 57 58 59
57 55 51 49 44 42 38 32 27 22 20 17 17 18 20 23 26 29 33 36 39 42 46 47 49 51 53 56 58 59 59 60 60 59 61 62 60 60 60 60 60 59 60
54 52 48 45 44 38 33 28 23 20 18 17 19 21 27 31 35 36 38 40 43 46 48 50 52 54 56 59 61 63 65 67 66 66 67 65 63 62 60 61 61 62 61
54 53 47 39 32 27 24 20 20 19 17 19 26 31 33 35 39 43 43 43 45 47 49 52 55 56 57 58 59 61 63 65 64 63 63 62 62 63 63 64 63 63 60
45 40 35 30 25 20 16 15 14 17 23 25 27 29 33 34 36 40 42 42 43 45 46 48 49 51 52 51 52 52 54 57 58 58 58 58 59 60 61 61 61 60 56
38 31 24 15 10 14 19 18 15 18 23 26 27 29 33 34 36 37 38 39 40 40 38 42 45 44 46 46 46 47 49 51 52 53 54 57 56 57 56 55 54 53 48
21 15 17 18 17 15 15 17 19 22 26 26 27 29 32 34 38 39 39 40 41 43 42 42 46 47 45 46 47 49 50 50 49 50 52 56 56 53 50 52 49 47 42
Wind_Direction_500mb
237 237 235 236 236 238 241 242 241 242 246 245 244 245 246 246 253 255 255 258 259 261 264 264 263 272 267 267 265 258 271 257 261 265 260 262 258 257 258 259 264 270 272
236 236 235 236 237 239 241 242 241 240 243 245 245 244 246 248 258 254 256 257 259 258 257 259 262 263 273 264 265 257 257 259 255 256 259 256 258 257 258 262 267 265 275
232 233 234 236 237 239 240 241 242 239 237 241 241 241 249 246 252 250 252 250 250 251 252 255 256 261 258 260 247 261 262 246 252 259 261 261 260 263 262 262 265 272 279
229 230 231 233 234 236 237 238 240 240 236 239 244 247 254 256 250 249 248 253 252 249 253 249 248 249 250 251 258 260 247 244 253 256 258 261 259 262 265 271 276 277 281
227 227 228 229 231 233 233 234 236 239 240 244 246 248 246 244 247 248 250 249 241 228 233 242 247 248 244 254 256 246 249 255 260 256 255 255 267 275 281 283 279 278 278
222 223 224 223 223 225 227 229 233 236 238 237 235 234 234 235 235 238 231 230 230 230 230 235 247 254 255 249 245 255 263 252 242 241 256 274 285 290 289 284 279 277 268
220 221 221 222 222 222 222 223 225 223 221 223 225 227 227 227 222 224 223 230 232 232 240 232 242 241 242 248 256 255 244 233 233 246 269 288 294 295 289 284 280 273 268
219 216 214 212 212 212 212 210 213 214 214 216 218 220 222 224 225 223 226 229 233 231 228 229 237 244 249 249 246 239 230 228 239 258 276 289 295 294 288 283 278 273 273
213 210 207 205 204 202 203 203 205 208 211 213 215 215 218 221 221 225 228 230 238 240 241 243 244 244 244 244 241 234 231 237 252 270 281 287 296 295 288 283 277 274 277
208 204 200 199 198 198 200 201 202 206 207 207 211 213 214 218 221 224 228 234 237 244 249 250 250 251 250 244 239 236 239 249 262 271 280 290 296 298 295 287 280 277 279
206 203 199 197 197 196 202 202 202 205 207 207 211 216 219 222 221 222 227 234 237 239 243 249 255 252 249 247 246 248 254 258 266 274 282 290 294 295 296 294 287 282 279
207 202 199 198 195 198 202 201 202 204 208 211 215 217 220 224 227 228 232 234 236 239 241 243 247 252 257 258 258 260 263 268 273 278 283 287 289 292 292 287 283 281 279
203 201 200 200 200 202 204 204 204 202 207 216 219 219 221 223 225 229 231 235 239 242 246 247 252 256 255 255 261 266 269 272 276 279 282 283 283 285 287 288 286 285 282
203 200 201 203 202 203 203 205 207 205 211 213 214 216 216 218 222 228 232 238 242 241 247 252 255 258 260 264 268 270 273 276 278 281 286 286 287 289 290 292 293 291 287
203 201 201 202 205 204 199 202 202 202 210 214 212 214 217 218 223 230 236 241 243 243 249 255 261 265 266 267 269 272 275 278 282 285 286 288 288 289 291 292 292 292 287
202 201 202 202 200 200 201 198 195 195 202 204 208 217 220 225 231 235 238 240 247 256 260 267 267 273 276 275 274 275 277 281 283 283 284 286 289 290 289 288 288 290 290
204 201 200 199 199 198 196 199 199 196 195 199 207 211 219 229 235 243 249 256 267 275 276 274 275 277 280 283 285 285 285 284 284 284 286 287 288 289 293 294 294 293 293
193 199 198 195 195 192 192 190 193 197 200 201 208 217 227 238 247 260 273 280 280 282 285 288 287 285 284 285 285 286 289 290 288 286 286 289 290 292 293 294 295 297 299
185 185 186 185 184 184 183 183 186 189 194 198 203 213 230 242 252 263 274 274 276 276 276 280 283 284 283 283 283 284 286 289 292 292 290 289 291 291 291 292 296 296 297
175 176 176 179 174 175 176 179 180 185 189 198 206 219 232 245 259 271 273 272 274 279 278 279 279 279 279 279 282 282 284 285 286 289 292 294 295 293 291 293 294 295 297
166 163 166 166 164 165 166 166 172 177 193 204 216 230 255 265 271 271 270 272 275 278 279 279 279 280 282 283 283 284 285 286 288 289 290 292 293 293 293 292 292 294 295
157 154 154 158 157 154 159 163 175 191 212 231 248 259 266 269 273 275 277 279 281 281 283 283 284 283 282 283 285 286 286 286 287 289 290 292 293 293 292 292 293 295 297
150 150 150 151 153 157 165 178 196 212 233 255 265 266 273 279 283 284 285 287 285 286 287 288 289 289 288 289 290 291 293 294 294 295 295 295 294 291 290 291 294 295 296
145 144 146 148 154 166 188 215 246 261 264 264 274 284 286 288 288 288 290 292 292 293 293 292 291 291 291 292 292 293 294 294 295 295 295 295 294 292 291 294 295 296 296
139 141 147 155 191 223 233 243 256 270 273 279 286 290 295 297 295 295 299 299 297 295 293 293 292 291 290 291 292 294 294 292 293 295 296 295 294 292 293 293 293 295 297
140 161 188 192 203 230 247 265 276 281 284 288 291 293 293 297 297 299 299 297 296 295 296 294 291 290 292 293 295 295 294 296 297 294 292 290 291 295 298 295 294 291 291
Wind_Speed_850mb
99 94 93 90 87 84 80 71 64 55 53 58 57 59 60 60 57 63 64 62 60 61 59 57 56 51 50 48 45 47 49 42 44 47 40 43 40 41 40 39 36 34 32
94 93 90 90 88 83 76 72 65 61 63 64 62 61 61 63 60 60 59 58 58 53 51 53 51 49 49 50 42 42 37 44 43 42 40 39 38 38 38 38 38 36 38
94 89 85 87 86 82 77 72 69 64 66 67 65 63 62 59 57 56 54 50 52 52 50 50 50 47 40 37 34 38 38 35 35 34 34 33 34 35 36 37 38 42 43
94 87 85 84 84 79 75 71 67 67 68 69 67 68 65 65 58 53 51 56 58 56 51 39 34 33 38 37 36 31 31 29 31 34 35 32 27 29 32 36 44 48 50
91 89 86 81 77 74 71 68 68 68 67 67 66 61 55 53 49 47 46 40 32 31 28 30 33 34 31 34 35 32 31 33 34 29 25 22 23 29 37 45 51 53 51
81 79 75 74 73 71 71 71 70 68 62 55 50 49 47 43 44 42 32 30 32 31 33 31 30 33 35 33 30 30 36 30 24 20 20 23 30 38 49 53 54 52 46
72 72 72 72 72 73 70 65 61 56 51 49 47 43 39 36 31 28 31 28 28 30 28 27 28 28 29 33 37 35 30 27 25 22 23 30 39 44 47 46 45 43 46
69 67 67 69 66 64 60 56 55 52 48 44 39 36 31 26 26 27 28 28 26 25 24 28 30 33 36 35 33 32 31 27 25 26 28 33 38 39 38 39 41 46 50
64 65 66 64 64 60 58 56 53 47 42 37 33 28 26 28 25 23 24 26 26 26 29 30 31 33 34 33 31 33 33 30 30 30 33 34 35 36 36 39 43 47 51
67 65 63 63 61 59 55 51 45 39 35 33 32 32 31 28 25 25 25 27 28 28 28 29 29 32 32 30 32 35 35 34 36 36 39 39 38 38 39 40 45 49 50
65 63 64 62 59 51 48 45 39 39 39 36 34 33 30 29 30 29 29 28 26 26 27 27 28 32 32 33 35 38 38 41 41 42 42 41 42 42 43 42 46 50 53
65 66 65 63 57 55 52 45 44 42 38 36 36 34 32 32 31 29 29 30 30 28 26 28 31 33 33 37 38 39 41 46 47 49 48 46 44 43 43 46 52 55 57
72 71 68 61 58 55 51 49 47 42 38 37 37 34 33 31 29 30 30 31 29 26 32 34 35 35 37 39 42 46 51 54 57 57 53 51 48 48 48 52 54 58 60
78 72 68 64 60 56 51 45 41 38 41 42 39 37 34 32 31 31 29 29 30 29 33 34 37 39 40 42 46 50 56 59 60 58 57 54 53 52 53 55 59 60 66
78 74 70 63 59 55 48 41 40 37 35 33 31 32 31 32 32 32 30 29 29 32 37 35 34 37 40 40 44 49 52 54 56 56 58 60 61 61 60 59 62 64 69
79 71 66 62 59 52 50 53 52 49 46 40 35 33 32 30 30 27 28 29 30 34 34 33 35 39 42 42 46 47 50 53 55 58 62 65 66 65 65 62 61 63 68
68 66 63 59 56 57 55 53 53 49 41 35 34 32 30 29 27 28 29 27 28 34 36 34 36 38 42 45 47 48 50 50 52 54 56 56 58 58 58 58 58 59 62
57 55 56 53 52 52 52 48 41 36 36 34 32 28 27 23 21 22 23 26 30 33 38 39 39 41 46 49 50 50 51 50 51 52 54 54 53 53 54 55 55 57 59
57 55 53 55 55 52 48 44 39 37 33 29 26 22 18 18 21 21 25 29 33 35 36 39 41 43 47 51 53 55 55 56 55 55 53 52 52 53 56 55 56 56 57
55 57 58 57 54 49 43 39 36 31 26 22 18 17 19 22 23 24 28 33 35 38 42 45 49 51 51 53 54 55 57 58 56 56 57 55 52 52 56 56 57 58 59
57 55 51 49 44 42 38 32 27 22 20 17 17 18 20 23 26 29 33 36 39 42 46 47 49 51 53 56 58 59 59 60 60 59 61 62 60 60 60 60 60 59 60
54 52 48 45 44 38 33 28 23 20 18 17 19 21 27 31 35 36 38 40 43 46 48 50 52 54 56 59 61 63 65 67 66 66 67 65 63 62 60 61 61 62 61
54 53 47 39 32 27 24 20 20 19 17 19 26 31 33 35 39 43 43 43 45 47 49 52 55 56 57 58 59 61 63 65 64 63 63 62 62 63 63 64 63 63 60
45 40 35 30 25 20 16 15 14 17 23 25 27 29 33 34 36 40 42 42 43 45 46 48 49 51 52 51 52 52 54 57 58 58 58 58 59 60 61 61 61 60 56
38 31 24 15 10 14 19 18 15 18 23 26 27 29 33 34 36 37 38 39 40 40 38 42 45 44 46 46 46 47 49 51 52 53 54 57 56 57 56 55 54 53 48
21 15 17 18 17 15 15 17 19 22 26 26 27 29 32 34 38 39 39 40 41 43 42 42 46 47 45 46 47 49 50 50 49 50 52 56 56 53 50 52 49 47 42
Wind_Direction_850mb
237 237 235 236 236 238 241 242 241 242 246 245 244 245 246 246 253 255 255 258 259 261 264 264 263 272 267 267 265 258 271 257 261 265 260 262 258 257 258 259 264 270 272
236 236 235 236 237 239 241 242 241 240 243 245 245 244 246 248 258 254 256 257 259 258 257 259 262 263 273 264 265 257 257 259 255 256 259 256 258 257 258 262 267 265 275
232 233 234 236 237 239 240 241 242 239 237 241 241 241 249 246 252 250 252 250 250 251 252 255 256 261 258 260 247 261 262 246 252 259 261 261 260 263 262 262 265 272 279
229 230 231 233 234 236 237 238 240 240 236 239 244 247 254 256 250 249 248 253 252 249 253 249 248 249 250 251 258 260 247 244 253 256 258 261 259 262 265 271 276 277 281
227 227 228 229 231 233 233 234 236 239 240 244 246 248 246 244 247 248 250 249 241 228 233 242 247 248 244 254 256 246 249 255 260 256 255 255 267 275 281 283 279 278 278
222 223 224 223 223 225 227 229 233 236 238 237 235 234 234 235 235 238 231 230 230 230 230 235 247 254 255 249 245 255 263 252 242 241 256 274 285 290 289 284 279 277 268
220 221 221 222 222 222 222 223 225 223 221 223 225 227 227 227 222 224 223 230 232 232 240 232 242 241 242 248 256 255 244 233 233 246 269 288 294 295 289 284 280 273 268
219 216 214 212 212 212 212 210 213 214 214 216 218 220 222 224 225 223 226 229 233 231 228 229 237 244 249 249 246 239 230 228 239 258 276 289 295 294 288 283 278 273 273
213 210 207 205 204 202 203 203 205 208 211 213 215 215 218 221 221 225 228 230 238 240 241 243 244 244 244 244 241 234 231 237 252 270 281 287 296 295 288 283 277 274 277
208 204 200 199 198 198 200 201 202 206 207 207 211 213 214 218 221 224 228 234 237 244 249 250 250 251 250 244 239 236 239 249 262 271 280 290 296 298 295 287 280 277 279
206 203 199 197 197 196 202 202 202 205 207 207 211 216 219 222 221 222 227 234 237 239 243 249 255 252 249 247 246 248 254 258 266 274 282 290 294 295 296 294 287 282 279
207 202 199 198 195 198 202 201 202 204 208 211 215 217 220 224 227 228 232 234 236 239 241 243 247 252 257 258 258 260 263 268 273 278 283 287 289 292 292 287 283 281 279
203 201 200 200 200 202 204 204 204 202 207 216 219 219 221 223 225 229 231 235 239 242 246 247 252 256 255 255 261 266 269 272 276 279 282 283 283 285 287 288 286 285 282
203 200 201 203 202 203 203 205 207 205 211 213 214 216 216 218 222 228 232 238 242 241 247 252 255 258 260 264 268 270 273 276 278 281 286 286 287 289 290 292 293 291 287
203 201 201 202 205 204 199 202 202 202 210 214 212 214 217 218 223 230 236 241 243 243 249 255 261 265 266 267 269 272 275 278 282 285 286 288 288 289 291 292 292 292 287
202 201 202 202 200 200 201 198 195 195 202 204 208 217 220 225 231 235 238 240 247 256 260 267 267 273 276 275 274 275 277 281 283 283 284 286 289 290 289 288 288 290 290
204 201 200 199 199 198 196 199 199 196 195 199 207 211 219 229 235 243 249 256 267 275 276 274 275 277 280 283 285 285 285 284 284 284 286 287 288 289 293 294 294 293 293
193 199 198 195 195 192 192 190 193 197 200 201 208 217 227 238 247 260 273 280 280 282 285 288 287 285 284 285 285 286 289 290 288 286 286 289 290 292 293 294 295 297 299
185 185 186 185 184 184 183 183 186 189 194 198 203 213 230 242 252 263 274 274 276 276 276 280 283 284 283 283 283 284 286 289 292 292 290 289 291 291 291 292 296 296 297
175 176 176 179 174 175 176 179 180 185 189 198 206 219 232 245 259 271 273 272 274 279 278 279 279 279 279 279 282 282 284 285 286 289 292 294 295 293 291 293 294 295 297
166 163 166 166 164 165 166 166 172 177 193 204 216 230 255 265 271 271 270 272 275 278 279 279 279 280 282 283 283 284 285 286 288 289 290 292 293 293 293 292 292 294 295
157 154 154 158 157 154 159 163 175 191 212 231 248 259 266 269 273 275 277 279 281 281 283 283 284 283 282 283 285 286 286 286 287 289 290 292 293 293 292 292 293 295 297
150 150 150 151 153 157 165 178 196 212 233 255 265 266 273 279 283 284 285 287 285 286 287 288 289 289 288 289 290 291 293 294 294 295 295 295 294 291 290 291 294 295 296
145 144 146 148 154 166 188 215 246 261 264 264 274 284 286 288 288 288 290 292 292 293 293 292 291 291 291 292 292 293 294 294 295 295 295 295 294 292 291 294 295 296 296
139 141 147 155 191 223 233 243 256 270 273 279 286 290 295 297 295 295 299 299 297 295 293 293 292 291 290 291 292 294 294 292 293 295 296 295 294 292 293 293 293 295 297
140 161 188 192 203 230 247 265 276 281 284 288 291 293 293 297 297 299 299 297 296 295 296 294 291 290 292 293 295 295 294 296 297 294 292 290 291 295 298 295 294 291 291